Home > Weather > Nipigon > Past weeks

Flag for Canada Past Weather in Nipigon, Ontario, Canada — Yesterday and Last 2 Weeks

Now
68 °F

Mild.


Feels Like: 68 °F
Forecast: 64 / 78 °F
Wind: 12 mph from Southwest

Location: Katatota Island

Current Time: Aug 24, 2016 at 3:01:59 AM

Latest Report: Aug 24, 2016 at 1:00 AM


Visibility: N/A

Pressure: 29.83 "Hg

Humidity: 86%

Dew Point: 63 °F

Location of NipigonLocation

Past Weather in Nipigon — Graph

°F

Nipigon Temperature Yesterday

Maximum temperature yesterday: 75 °F (at 3:00 PM)
Minimum temperature yesterday: 65 °F (at 7:00 AM)
Average temperature yesterday: 69 °F

High & Low Weather Summary for the Past Weeks

 TemperatureHumidityPressure
High78 °F (Aug 18, 2:00 PM)96% (Aug 17, 12:00 AM)30.13 "Hg (Aug 17, 12:00 AM)
Low56 °F (Aug 10, 5:00 AM)44% (Aug 21, 4:00 PM)29.66 "Hg (Aug 21, 12:00 AM)
Average65 °F79%29.89 "Hg
* Reported Aug 9 1:00 AM — Aug 24 1:00 AM, Nipigon, Weather by CustomWeather, © 2016

Note: Actual official high and low records may vary slightly from our data, if they occured in-between our weather recording intervals... More about our weather records

Advertising

Nipigon Weather History for the Previous 24 Hours

Scroll right to see more
 ConditionsComfort  
Time TempWeatherWind HumidityBarometerVisibility
1:00 AM
Wed, Aug 24
68 °FMild.12 mph86%29.83 "HgN/A
12:00 AM67 °FMild.6 mph87%29.82 "HgN/A
11:00 PM
Tue, Aug 23
66 °FMild.5 mph88%29.82 "HgN/A
10:00 PM67 °FMild.2 mph88%29.84 "HgN/A
9:00 PM70 °FMild.3 mph82%29.84 "HgN/A
8:00 PM71 °FMild.2 mph79%29.86 "HgN/A
7:00 PM72 °FMild.3 mph76%29.87 "HgN/A
6:00 PM74 °FMild.5 mph77%29.88 "HgN/A
5:00 PM74 °FMild.7 mph77%29.88 "HgN/A
4:00 PM74 °FMild.6 mph70%29.88 "HgN/A
3:00 PM75 °FMild.6 mph73%29.89 "HgN/A
2:00 PM74 °FMild.5 mph79%29.90 "HgN/A
1:00 PM74 °FMild.2 mph73%29.90 "HgN/A
12:00 PM73 °FMild.3 mph73%29.89 "HgN/A
11:00 AM70 °FMild.8 mph80%29.90 "HgN/A
10:00 AM69 °FMild.7 mph83%29.89 "HgN/A
9:00 AM67 °FMild.7 mph87%29.89 "HgN/A
8:00 AM66 °FMild.6 mph89%29.89 "HgN/A
7:00 AM65 °FMild.7 mph92%29.87 "HgN/A
6:00 AM65 °FMild.8 mph90%29.84 "HgN/A
5:00 AM65 °FMild.8 mph89%29.83 "HgN/A
4:00 AM65 °FMild.10 mph86%29.83 "HgN/A
3:00 AM65 °FMild.10 mph85%29.82 "HgN/A
Weather by CustomWeather, © 2016

See weather overviewHow to use our weather pages